Погода в Фужере

Франция     48°21′21″N   1°12′11″W
темп.,
°C
ветер,
м/с
пор.,
м/с
влажн.,
%
обл.,
%
осадки,
мм/ч
давл.,
гПа
погр.,
м
23 апреля, пт
пт2323:00+10всв614720 0.0 1023352
02:00+8в615610 0.0 1023324
05:00+6в613690 0.0 1023252
08:00+6в614730 0.0 1023278
11:00+12вюв711620 0.0 1023486
14:00+16в810530 0.0 1023862
17:00+17вюв79550 0.0 10221160
20:00+14в511690 0.0 1022400
24 апреля, сб
сб2423:00+10в615700 0.0 1022342
02:00+8в615710 0.0 1022320
05:00+7в613755 0.0 1021262
08:00+7в6147472 0.0 1021258
11:00+13в6106271 0.0 1021458
14:00+17в6856100 0.0 1020863
17:00+18в6757100 0.0 1019999
20:00+15всв511725 0.0 1020455
25 апреля, вс
вс2523:00+11всв61568100 0.0 1021379
02:00+9всв6147425 0.0 1022343
05:00+7всв61575100 0.0 1021317
08:00+6всв7167988 0.0 1021371
11:00+12в8136435 0.0 1021649
14:00+15всв8105575 0.0 10191010
17:00+16всв71059100 0.0 10181190
20:00+13всв8136799 0.0 1017805
26 апреля, пн
пн2623:00+10всв81659100 0.0 1018513
02:00+8всв71762100 0.0 1017469
05:00+7всв81759100 0.0 1016440
08:00+6всв81861100 0.0 1016443
11:00+11всв81660100 0.0 1015635
14:00+15всв81148100 0.0 10131001
17:00+15всв71055100 0.0 10111231
20:00+12св712635 0.0 1011655
27 апреля, вт
вт2723:00+8св614640 0.0 1012374
02:00+5ссв512800 0.0 1011244
05:00+3св410841 0.0 1009166
08:00+4ссв411805 0.0 1009221
11:00+12ссв565751 0.0 1009588
14:00+15ссв45495 0.0 10071323
17:00+16с44495 0.0 10061674
20:00+12с47704 0.0 1007285